Lid_Strength_Index
1 2 2 2 4 5 5 2 6 1 1 5 5 7 5 6 5 4 5 5 6 6 6 7 7 7 6 4 5 6 5 7 9 8 5 5 6 7 7 10 10 9 9 14
1 1 3 3 4 4 5 5 4 1 1 7 6 5 5 5 5 5 5 6 5 5 6 7 6 6 5 4 5 6 5 7 10 10 7 6 7 6 6 7 7 10 11 12
1 1 2 4 4 5 5 4 7 4 3 3 5 6 6 6 4 5 4 5 5 5 6 5 7 6 5 4 5 3 4 7 8 10 10 7 8 7 7 7 10 10 11 11
1 1 2 3 4 5 5 4 6 7 8 6 5 5 5 6 6 4 4 5 5 6 7 7 7 6 5 5 4 4 5 8 7 7 7 8 7 7 7 8 7 9 9 8
1 1 2 3 4 5 4 5 6 6 6 4 5 6 6 6 6 5 6 6 5 5 6 6 7 6 6 6 5 5 5 8 7 8 7 7 8 7 7 7 7 7 7 8
1 2 2 2 3 4 2 2 2 4 7 6 6 6 5 6 5 5 4 5 5 6 5 4 4 4 4 5 5 6 6 7 8 10 7 7 9 7 7 7 6 7 8 7
2 2 2 3 3 4 2 1 2 5 7 7 7 6 5 6 5 6 5 4 5 4 3 3 4 4 5 4 5 5 7 7 7 9 8 13 7 5 5 6 6 6 6 6
2 2 2 3 3 3 2 1 2 5 7 6 6 6 6 6 5 5 5 4 3 2 4 7 8 7 6 6 5 5 5 6 8 10 10 8 7 6 6 7 7 6 6 5
3 2 2 3 3 3 3 1 -0 3 6 6 5 6 5 6 6 6 5 3 2 3 5 7 10 11 9 9 7 5 5 5 7 8 10 12 8 6 4 5 9 5 5 5
3 2 2 3 3 3 3 1 -0 2 5 4 4 5 6 4 6 6 6 6 5 3 7 9 9 9 8 10 10 11 8 8 9 9 9 9 7 6 4 11 11 6 4 5
3 2 2 3 3 3 4 1 -1 2 4 4 3 3 4 4 5 7 7 8 6 6 8 8 8 9 10 10 10 11 13 11 10 9 10 11 6 6 9 8 6 6 4 4
4 3 2 3 3 3 4 2 -1 -1 3 3 1 1 1 2 3 4 5 8 8 7 7 6 6 10 10 10 12 9 13 11 11 8 10 6 5 6 4 5 5 5 4 4
3 3 2 3 3 3 4 2 0 1 3 4 3 3 1 0 1 1 5 6 5 6 4 6 7 11 9 12 11 12 10 8 10 9 7 7 6 5 5 4 3 3 3 3
3 3 2 3 2 2 4 3 1 1 3 6 4 1 2 0 0 1 2 3 2 3 4 6 6 8 6 10 10 11 9 8 7 7 7 6 6 5 5 4 3 3 3 3
3 3 3 3 2 3 3 2 1 0 3 7 5 2 1 1 1 2 2 2 3 4 6 6 7 5 7 6 8 9 7 8 8 9 5 5 7 5 4 3 3 3 3 3
3 3 3 4 3 3 3 3 1 0 1 4 7 2 2 2 1 2 2 2 3 4 5 5 5 5 6 8 9 6 5 4 4 5 4 4 3 3 3 3 3 3 3 3
4 4 4 4 4 3 3 4 3 5 1 5 7 6 3 2 2 2 3 2 3 4 5 6 5 5 5 7 9 6 5 4 4 3 3 4 3 4 3 3 3 3 3 3
4 4 5 5 5 5 3 1 4 4 3 3 7 6 5 2 4 5 3 4 4 4 5 5 6 6 6 9 6 5 5 5 5 4 3 3 3 3 3 3 3 3 4 3
5 5 6 5 5 3 2 2 4 2 3 7 6 8 8 3 4 4 4 4 7 4 6 6 5 8 9 8 6 6 5 6 6 5 4 3 3 4 3 3 3 4 4 3
6 6 5 5 2 2 2 2 4 4 4 5 6 4 7 4 5 5 5 5 7 8 7 5 7 8 5 5 4 5 5 4 4 6 5 4 4 4 3 3 3 3 3 3
5 5 4 1 2 2 3 6 7 6 7 5 5 5 6 3 6 7 5 7 6 9 7 8 8 9 6 4 4 4 3 3 3 3 3 2 3 3 3 3 3 3 3 3
5 4 2 1 3 5 8 9 7 7 8 5 6 5 5 4 3 6 6 7 7 9 5 8 11 6 4 3 3 3 2 3 3 2 2 2 2 3 3 3 3 3 2 2
3 5 5 6 6 12 11 11 9 8 6 5 5 6 5 4 4 6 6 8 9 5 8 9 7 6 5 4 3 3 3 2 2 3 2 2 2 2 2 3 3 2 2 2
6 8 12 9 10 8 7 7 8 5 5 4 5 7 6 5 6 6 8 7 6 9 10 9 6 6 5 4 3 3 3 3 3 3 2 2 3 3 2 2 2 2 3 2
7 8 12 8 6 5 5 4 5 4 4 4 6 6 6 7 8 6 7 9 10 9 9 7 6 5 4 4 3 3 3 3 3 2 3 3 3 3 3 2 2 2 2 2
6 7 8 6 6 6 6 5 6 3 4 3 5 7 9 10 9 8 9 10 10 8 7 7 5 4 4 3 2 2 2 2 2 3 3 3 3 3 3 2 2 2 2 2
8 7 5 6 6 6 6 4 5 3 4 7 7 9 10 7 9 9 7 8 7 6 6 6 5 5 4 3 3 3 2 2 2 2 2 3 2 2 3 3 2 2 2 2